| time (UTC) | temp F | wind direction | speed MPH | gust MPH | rain 1hr in | rain 24hr in | rain mn in | humidity % | barometer mb |
| 20260906103010 | 70 | 13 | 3.0 | 7.0 | 0.00 | 0.01 | 0.00 | 90 | 1028.6 |
| 20260906101507 | 71 | 4 | 2.0 | 8.0 | 0.00 | 0.01 | 0.00 | 92 | 1028.5 |
| 20260906100048 | 71 | 21 | 4.0 | 10.0 | 0.00 | 0.01 | 0.00 | 95 | 1028.5 |
| 20260906094547 | 71 | 36 | 2.0 | 9.0 | 0.00 | 0.01 | 0.00 | 97 | 1028.3 |
| 20260906093025 | 72 | 21 | 4.0 | 8.0 | 0.00 | 0.01 | 0.00 | 97 | 1028.2 |
| 20260906091532 | 72 | 41 | 4.0 | 7.0 | 0.00 | 0.01 | 0.00 | 98 | 1028.4 |
| 20260906090006 | 71 | 29 | 3.0 | 7.0 | 0.00 | 0.01 | 0.00 | 98 | 1028.3 |
| 20260906084502 | 71 | 34 | 4.0 | 8.0 | 0.00 | 0.01 | 0.00 | 98 | 1028.2 |
| 20260906083049 | 71 | 2 | 4.0 | 0.0 | 0.00 | 0.00 | 0.00 | 98 | 1027.9 |
| 20260906081551 | 71 | 32 | 3.0 | 6.0 | 0.00 | 0.01 | 0.01 | 98 | 1027.9 |
| 20260906080046 | 71 | 42 | 3.0 | 7.0 | 0.00 | 0.01 | 0.01 | 98 | 1027.8 |
| 20260906074604 | 71 | 23 | 2.0 | 5.0 | 0.00 | 0.01 | 0.01 | 98 | 1027.6 |
| 20260906073044 | 71 | 324 | 2.0 | 5.0 | 0.00 | 0.01 | 0.01 | 98 | 1027.8 |
| 20260906071544 | 71 | 1 | 3.0 | 6.0 | 0.00 | 0.01 | 0.01 | 98 | 1027.8 |
| 20260906070043 | 71 | 34 | 2.0 | 5.0 | 0.00 | 0.01 | 0.01 | 98 | 1027.7 |
| 20260906064544 | 71 | 36 | 2.0 | 4.0 | 0.00 | 0.01 | 0.01 | 98 | 1027.7 |
| 20260906063025 | 71 | 30 | 2.0 | 4.0 | 0.00 | 0.01 | 0.01 | 97 | 1027.9 |
| 20260906061521 | 71 | 27 | 1.0 | 4.0 | 0.00 | 0.01 | 0.01 | 97 | 1027.9 |
| 20260906060016 | 72 | 38 | 2.0 | 5.0 | 0.00 | 0.01 | 0.01 | 97 | 1027.9 |
| 20260906054507 | 72 | 32 | 3.0 | 5.0 | 0.00 | 0.01 | 0.01 | 96 | 1027.7 |
| 20260906053008 | 73 | 9 | 3.0 | 5.0 | 0.00 | 0.01 | 0.01 | 95 | 1027.6 |
| 20260906051505 | 73 | 27 | 3.0 | 6.0 | 0.00 | 0.01 | 0.01 | 95 | 1027.6 |
| 20260906050008 | 73 | 21 | 2.0 | 6.0 | 0.00 | 0.01 | 0.01 | 95 | 1027.5 |
| 20260906044502 | 73 | 9 | 3.0 | 6.0 | 0.00 | 0.01 | 0.01 | 95 | 1027.4 |
| 20260906043059 | 73 | 355 | 3.0 | 5.0 | 0.00 | 0.01 | 0.01 | 94 | 1027.5 |
| 20260906041559 | 74 | 26 | 3.0 | 7.0 | 0.00 | 0.01 | 0.01 | 93 | 1027.3 |
| 20260906040045 | 74 | 31 | 3.0 | 8.0 | 0.00 | 0.01 | 0.01 | 92 | 1027.3 |
| 20260906034540 | 75 | 37 | 5.0 | 10.0 | 0.00 | 0.01 | 0.01 | 92 | 1027.2 |
| 20260906033035 | 76 | 21 | 4.0 | 13.0 | 0.00 | 0.01 | 0.01 | 90 | 1027.1 |
| 20260906031521 | 76 | 27 | 4.0 | 9.0 | 0.00 | 0.01 | 0.01 | 89 | 1027.2 |
| 20260906030003 | 77 | 47 | 6.0 | 11.0 | 0.00 | 0.01 | 0.01 | 87 | 1027.1 |
| 20260906024602 | 78 | 30 | 6.0 | 10.0 | 0.00 | 0.01 | 0.01 | 86 | 1026.9 |
| 20260906023043 | 79 | 16 | 4.0 | 12.0 | 0.00 | 0.01 | 0.01 | 85 | 1026.8 |
| 20260906021544 | 80 | 27 | 6.0 | 10.0 | 0.00 | 0.01 | 0.01 | 85 | 1026.5 |
| 20260906020024 | 81 | 34 | 5.0 | 9.0 | 0.00 | 0.01 | 0.01 | 84 | 1026.3 |
| 20260906014523 | 82 | 31 | 5.0 | 9.0 | 0.00 | 0.01 | 0.01 | 82 | 1026.1 |
| 20260906013011 | 82 | 51 | 6.0 | 13.0 | 0.00 | 0.01 | 0.01 | 81 | 1025.9 |
| 20260906011508 | 83 | 8 | 3.0 | 11.0 | 0.00 | 0.02 | 0.01 | 81 | 1025.8 |
| 20260906010046 | 83 | 37 | 5.0 | 10.0 | 0.00 | 0.02 | 0.01 | 79 | 1025.5 |
| 20260906004545 | 84 | 11 | 6.0 | 12.0 | 0.00 | 0.02 | 0.01 | 80 | 1025.2 |
| 20260906003027 | 85 | 49 | 8.0 | 13.0 | 0.00 | 0.02 | 0.01 | 80 | 1025.2 |
| 20260906001526 | 87 | 20 | 5.0 | 12.0 | 0.00 | 0.02 | 0.01 | 80 | 1025.0 |
| 20260906000025 | 88 | 360 | 5.0 | 8.0 | 0.00 | 0.02 | 0.01 | 77 | 1024.8 |
| 20260905234525 | 90 | 333 | 4.0 | 8.0 | 0.00 | 0.02 | 0.01 | 74 | 1024.7 |
| 20260905233024 | 91 | 333 | 6.0 | 10.0 | 0.00 | 0.02 | 0.01 | 73 | 1024.5 |
| 20260905231524 | 92 | 323 | 5.0 | 9.0 | 0.00 | 0.02 | 0.01 | 71 | 1024.5 |
| 20260905230024 | 93 | 335 | 3.0 | 9.0 | 0.00 | 0.02 | 0.01 | 69 | 1024.4 |
| 20260905224531 | 95 | 356 | 5.0 | 8.0 | 0.00 | 0.02 | 0.01 | 66 | 1024.3 |
| 20260905223006 | 96 | 22 | 2.0 | 6.0 | 0.00 | 0.02 | 0.01 | 66 | 1024.3 |
| 20260905221502 | 96 | 15 | 3.0 | 10.0 | 0.00 | 0.02 | 0.01 | 64 | 1024.2 |
| 20260905214547 | 97 | 13 | 4.0 | 7.0 | 0.00 | 0.02 | 0.01 | 62 | 1024.3 |
| 20260905213050 | 97 | 4 | 3.0 | 6.0 | 0.00 | 0.02 | 0.01 | 62 | 1024.3 |
| 20260905211557 | 96 | 14 | 3.0 | 11.0 | 0.00 | 0.02 | 0.01 | 62 | 1024.3 |
| 20260905210048 | 97 | 8 | 4.0 | 8.0 | 0.00 | 0.02 | 0.01 | 62 | 1024.3 |
| 20260905204547 | 95 | 32 | 2.0 | 5.0 | 0.00 | 0.02 | 0.01 | 66 | 1024.5 |
| 20260905203053 | 97 | 21 | 4.0 | 6.0 | 0.00 | 0.02 | 0.01 | 63 | 1024.7 |
| 20260905201543 | 96 | 30 | 1.0 | 5.0 | 0.00 | 0.02 | 0.01 | 66 | 1024.7 |
| 20260905200025 | 97 | 337 | 3.0 | 7.0 | 0.00 | 0.02 | 0.01 | 62 | 1025.0 |
| 20260905194527 | 98 | 342 | 4.0 | 9.0 | 0.00 | 0.02 | 0.01 | 58 | 1025.1 |
| 20260905193023 | 95 | 13 | 4.0 | 8.0 | 0.00 | 0.02 | 0.01 | 58 | 1025.0 |
| 20260905191521 | 98 | 349 | 3.0 | 13.0 | 0.00 | 0.02 | 0.01 | 62 | 1025.2 |
| 20260905190018 | 98 | 340 | 3.0 | 8.0 | 0.00 | 0.02 | 0.01 | 59 | 1025.2 |
| 20260905184515 | 98 | 10 | 8.0 | 13.0 | 0.00 | 0.02 | 0.01 | 58 | 1025.4 |
| 20260905183012 | 94 | 213 | 2.0 | 8.0 | 0.01 | 0.02 | 0.01 | 65 | 1025.6 |
| 20260905181511 | 95 | 256 | 2.0 | 8.0 | 0.01 | 0.02 | 0.01 | 66 | 1025.9 |
| 20260905180100 | 95 | 236 | 0.0 | 8.0 | 0.01 | 0.02 | 0.01 | 65 | 1026.0 |
| 20260905174555 | 95 | 352 | 0.0 | 6.0 | 0.01 | 0.02 | 0.01 | 66 | 1026.2 |
| 20260905173050 | 94 | 108 | 1.0 | 4.0 | 0.00 | 0.01 | 0.00 | 70 | 1026.4 |
| 20260905171547 | 92 | 262 | 2.0 | 7.0 | 0.00 | 0.01 | 0.00 | 69 | 1026.3 |
| 20260905170043 | 91 | 199 | 0.0 | 9.0 | 0.00 | 0.01 | 0.00 | 71 | 1026.5 |
| 20260905164540 | 91 | 219 | 3.0 | 10.0 | 0.00 | 0.01 | 0.00 | 73 | 1026.7 |
| 20260905163037 | 90 | 212 | 5.0 | 11.0 | 0.00 | 0.01 | 0.00 | 74 | 1026.6 |
| 20260905161535 | 89 | 176 | 3.0 | 11.0 | 0.00 | 0.01 | 0.00 | 76 | 1026.8 |
| 20260905160019 | 89 | 231 | 5.0 | 10.0 | 0.00 | 0.01 | 0.00 | 76 | 1026.9 |
| 20260905154513 | 88 | 202 | 3.0 | 9.0 | 0.00 | 0.01 | 0.00 | 78 | 1027.0 |
| 20260905153111 | 87 | 154 | 4.0 | 12.0 | 0.00 | 0.01 | 0.00 | 80 | 1027.0 |
| 20260905151557 | 86 | 130 | 4.0 | 11.0 | 0.00 | 0.01 | 0.00 | 80 | 1027.0 |
| 20260905150050 | 86 | 137 | 5.0 | 9.0 | 0.00 | 0.01 | 0.00 | 81 | 1027.4 |
| 20260905144529 | 85 | 167 | 6.0 | 10.0 | 0.00 | 0.01 | 0.00 | 82 | 1027.3 |
| 20260905143027 | 84 | 185 | 5.0 | 9.0 | 0.00 | 0.01 | 0.00 | 85 | 1027.2 |
| 20260905141510 | 82 | 115 | 3.0 | 10.0 | 0.00 | 0.01 | 0.00 | 88 | 1027.2 |
| 20260905140006 | 83 | 87 | 2.0 | 4.0 | 0.00 | 0.01 | 0.00 | 87 | 1027.1 |
| 20260905134556 | 83 | 109 | 2.0 | 4.0 | 0.00 | 0.01 | 0.00 | 86 | 1026.9 |
| 20260905133051 | 82 | 232 | 2.0 | 4.0 | 0.00 | 0.01 | 0.00 | 87 | 1026.9 |
| 20260905131546 | 80 | 91 | 0.0 | 3.0 | 0.00 | 0.01 | 0.00 | 91 | 1026.9 |
| 20260905130042 | 79 | 57 | 1.0 | 3.0 | 0.00 | 0.01 | 0.00 | 91 | 1027.0 |
| 20260905124542 | 78 | 20 | 0.0 | 2.0 | 0.00 | 0.01 | 0.00 | 94 | 1027.0 |
| 20260905123037 | 77 | 20 | 0.0 | 1.0 | 0.00 | 0.01 | 0.00 | 95 | 1026.9 |
| 20260905121531 | 0 | 0.0 | 0.0 | 0.00 | 0.01 | 0.00 | 1026.7 | ||
| 20260905120026 | 0 | 0.0 | 0.0 | 0.00 | 0.01 | 0.00 | 1026.8 | ||
| 20260905114510 | 0 | 0.0 | 0.0 | 0.00 | 0.01 | 0.00 | 1026.7 | ||
| 20260905113001 | 0 | 0.0 | 0.0 | 0.00 | 0.01 | 0.00 | 1026.7 | ||
| 20260905111538 | 0 | 0.0 | 0.0 | 0.00 | 0.01 | 0.00 | 1026.6 | ||
| 20260905110034 | 0 | 0.0 | 0.0 | 0.00 | 0.01 | 0.00 | 1026.6 | ||
| 20260905104512 | 73 | 20 | 0.0 | 2.0 | 0.00 | 0.01 | 0.00 | 100 | 1026.4 |